Regional Weather Roundup
Issued by NWS

Home | Current Version | Previous Version | Graphics & Text | Print | Product List | Glossary On
Versions: 1 2 3 4 5 6 7 8 9 10 11 12 13 14 15 16 17 18 19 20 21 22 23 24 25 26 27 28 29 30 31 32 33 34 35 36 37 38 39 40 41 42 43 44 45 46 47 48 49 50
000
ASUS43 KLSX 162207
RWRMO

WEATHER SUMMARY FOR MISSOURI
NATIONAL WEATHER SERVICE SPRINGFIELD MO
500 PM CDT WED AUG 16 2017

NOTE: "FAIR" INDICATES FEW OR NO CLOUDS BELOW 12,000 FEET WITH NO
       SIGNIFICANT WEATHER AND/OR OBSTRUCTIONS TO VISIBILITY.
       CURRENT SKY AND/OR WEATHER CONDITIONS ARE NOT AVAILABLE FOR
       CHILLICOTHE AND FARMINGTON.

MOZ001>031-035>038-043-044-053-054-162300-
...NORTHERN AND WESTERN MISSOURI...

CITY           SKY/WX    TMP DP  RH WIND       PRES   REMARKS
KANSAS CTY INT PTSUNNY   83  72  69 W5        29.80F
KANSAS C DTWN  CLOUDY    84  74  71 W6        29.78F HX  91
LEE`S SUMMIT   PTSUNNY   83  73  72 S16       29.81F
ST JOSEPH      CLOUDY    83  71  67 W10G17    29.79S
CHILLICOTHE      N/A     85  75  72 S7        29.78F HX  93
KIRKSVILLE     CLOUDY    82  74  76 S15G22    29.83S

$$
MOZ066>068-077>081-088>096-101>105-162300-
...SOUTHWEST MISSOURI...

CITY           SKY/WX    TMP DP  RH WIND       PRES   REMARKS
SPRINGFIELD    CLOUDY    77  76  96 S10       29.89F
JOPLIN         MOSUNNY   87  77  72 S16       29.85F HX  99
BRANSON        PTSUNNY   82  73  74 SW5       29.94S

$$
MOZ032>034-039>042-045>050-055>058-069>072-162300-
...CENTRAL MISSOURI...

CITY           SKY/WX    TMP DP  RH WIND       PRES   REMARKS
COLUMBIA       CLOUDY    71  70  96 S12       29.87F
JEFFERSON CITY LGT RAIN  72  72 100 SE6       29.87F
ROLLA          LGT RAIN  70  70 100 S7        29.95S
SEDALIA        MOSUNNY   81  76  84 S15G22    29.85F
WHITEMAN AFB   MOSUNNY   83  77  83 SW13      29.82F HX  92
WARRENSBURG    MOSUNNY   82  70  65 S10       29.82F
OSAGE BEACH    RAIN      70  70 100 SE5       29.88F

$$
MOZ051-052-059>065-162300-
...EAST CENTRAL MISSOURI...

CITY           SKY/WX    TMP DP  RH WIND       PRES   REMARKS
ST LOUIS INTL  TSTM      74  74 100 SW16G35   29.96R VSB 3/4
SPIRIT OF STL  HVY RAIN  73  73 100 SE8       29.91R VSB 1
ST CHARLES     TSTM      76  74  93 SW20G26   29.94R FOG

$$
MOZ072>076-082>087-097>100-106>115-162300-
...SOUTH CENTRAL AND SOUTHEAST MISSOURI...

CITY           SKY/WX    TMP DP  RH WIND       PRES   REMARKS
CAPE GIRARDEAU MOSUNNY   84  75  74 S10       29.92S HX  92
FARMINGTON     CLOUDY    74  72  93 S8        29.95F
POPLAR BLUFF   CLOUDY    85  77  77 SW13      29.93S HX  95
WEST PLAINS    MOSUNNY   87  71  58 S15G22    29.93F HX  93

$$



USA.gov is the U.S. government's official web portal to all federal, state and local government web resources and services.